Weather Roundup
Issued by NWS

Home | Current Version | Previous Version | Text Only | Print | Product List | Glossary On
Versions: 1 2 3 4 5 6 7 8 9 10 11 12 13 14 15 16 17 18 19 20 21 22 23 24 25 26 27 28 29 30 31 32 33 34 35 36 37 38 39 40 41 42 43 44 45 46 47 48 49 50
644
NZUS93 KARX 101610
HRRWXR

CURRENT HOURLY OBSERVATIONS ACROSS
MUCH OF THE UPPER MISSISSIPPI VALLEY
NATIONAL WEATHER SERVICE LA CROSSE WI
1000 AM CST WED FEB 10 2016


...SOUTHEAST MINNESOTA...


CITY           SKY/WX    TMP DP  RH WIND       PRES   REMARKS
ROCHESTER      CLOUDY     3  -3  76 NW7       30.07S WCI  -9
ROCHESTER/MAYO CLOUDY     5  -2  72 W6        30.09S WCI  -6
WINONA         CLOUDY     9   0  66 NW7       30.15R WCI  -3
AUSTIN         CLOUDY     5  -2  72 N7        30.07S WCI  -7
ALBERT LEA     CLOUDY     7   0  72 NE3       30.07S
DODGE CENTER   CLOUDY     7  -2  66 N6        30.06F WCI  -3
PRESTON        CLOUDY     2  -5  72 NW6       30.07S WCI  -9
OWATONNA       CLOUDY     5  -2  72 NE5       30.08F WCI  -4
FARIBAULT        N/A      7  -2  66 N5        30.11S WCI  -2
$$

...ELSEWHERE IN MINNESOTA...


CITY           SKY/WX    TMP DP  RH WIND       PRES   REMARKS
MINNEAPOLIS    CLOUDY     6  -6  57 N8        30.14S WCI  -7
INTNL FALLS    CLOUDY    -9 -15  75 CALM      30.16R
DULUTH         MOSUNNY   -2 -11  65 N6        30.06R WCI -14
RED WING       MOSUNNY    3  -6  66 N5        30.13F WCI  -6
REDWOOD FALLS  LGT SNOW   8   2  76 E5        30.09S WCI   0
MANKATO        CLOUDY     7  -2  66 E6        30.10S WCI  -3
WORTHINGTON    CLOUDY     9   3  78 E13       30.02S VSB 1   WCI  -7
FAIRMONT       CLOUDY     7   1  78 E6        30.07S WCI  -3
$$

...SOUTHWEST WISCONSIN...


CITY           SKY/WX    TMP DP  RH WIND       PRES   REMARKS
LA CROSSE      CLOUDY     5  -5  63 NW9       30.13R WCI  -9
PRAIRIE DU CHI CLOUDY     7  -5  57 NW6       30.13R WCI  -3
BOSCOBEL       CLOUDY    10  -3  55 NW7       30.12R WCI  -1
LONE ROCK      NOT AVBL
PLATTEVILLE    SUNNY      7  -2  66 NW9       30.07S WCI  -7
FORT MC COY    SUNNY      6  -3  66 N6        30.10R WCI  -5
CAMP DOUGLAS   MOSUNNY    5  -2  72 W10       30.06R WCI -10
VIROQUA        FAIR       4  -4  68 NW6       30.05S WCI  -7
WIS DELLS      SUNNY      7  -4  60 NW8       30.04R WCI  -6
$$

...ELSEWHERE IN WISCONSIN...


CITY           SKY/WX    TMP DP  RH WIND       PRES   REMARKS
MILWAUKEE      MOSUNNY   12  -2  53 NW10      30.02R WCI  -1
MADISON        MOSUNNY    8  -3  61 NW10      30.04S WCI  -6
GREEN BAY      SUNNY      9  -4  55 NW17      30.01S WCI  -9
EAU CLAIRE     CLOUDY     3  -5  69 NW6       30.11R WCI  -8
BLACK RVR FLS  FAIR       6  -5  60 W5        30.10R WCI  -3
MEDFORD        CLOUDY     3  -4  72 N8        30.00R WCI -11
WAUSAU         CLOUDY     8  -3  61 N10G17    29.99R WCI  -6
WIS RAPIDS     MOSUNNY    6  -5  60 N12       30.05R WCI  -9
MARSHFIELD     SUNNY      4  -6  63 NW13      30.01R WCI -13
RICE LAKE      CLOUDY     1  -5  74 W6        30.11R WCI -10
$$

...NORTHEAST IOWA...


CITY           SKY/WX    TMP DP  RH WIND       PRES   REMARKS
WATERLOO       CLOUDY     8  -1  66 N5        30.12S WCI   0
DUBUQUE        MOSUNNY    8  -2  63 NW8       30.07R WCI  -4
DECORAH        MOSUNNY    5  -6  61 N8        30.08R WCI  -8
MASON CITY     CLOUDY     7  -1  70 E5        30.10R WCI  -2
CHARLES CITY   CLOUDY     5  -2  72 N5        30.10S WCI  -4
OELWEIN        CLOUDY     5  -4  66 N9        30.10F WCI  -9
$$

...ELSEWHERE IN IOWA...


CITY           SKY/WX    TMP DP  RH WIND       PRES   REMARKS
DES MOINES     LGT SNOW  17  11  77 SE3       30.10S VSB 3/4
IOWA CITY      CLOUDY    12   1  61 NW6       30.16R WCI   3
FORT DODGE     CLOUDY    10   5  79 E8        30.09R WCI  -1
MARSHALLTOWN   LGT SNOW  11   4  73 CALM      30.11R
CEDAR RAPIDS   CLOUDY    10   1  67 N6        30.11S WCI   0
$$

...NORTHERN ILLINOIS...


CITY           SKY/WX    TMP DP  RH WIND       PRES   REMARKS
CHICAGO-OHARE  PTSUNNY   13   2  61 NW10      30.03S WCI   0
CHICAGO-MIDWAY MOSUNNY   15   1  53 NW13      30.04S WCI   1
MOLINE         MOSUNNY   13   0  56 W9        30.12S WCI   1
ROCKFORD       MOSUNNY   12   0  58 NW14      30.08S WCI  -3
PEORIA         SUNNY     14   1  56 W10       30.11F WCI   1
$$

NOTE: "FAIR" INDICATES FEW OR NO CLOUDS BELOW 12,000 FEET WITH NO
SIGNIFICANT WEATHER AND/OR OBSTRUCTIONS TO VISIBILITY. WIND
SPEEDS ARE IN MILES-PER-HOUR.




USA.gov is the U.S. government's official web portal to all federal, state and local government web resources and services.